HISAKI (SPRINT-A)

Last updated on Sun Jun 21 2026 00:03:39 GMT+0000 (Coordinated Universal Time)

1 39253U 13049A 26171.36948668 .00000096 00000+0 45696-4 0 9994 2 39253 29.7174 203.8331 0136848 42.6521 318.4585 13.55544968631851
UTC large
Height (km)
Speed (km/s)
/
Latitude / Longitude
Inclination (degrees)
Orbital Period (minutes)
Azimuth
Elevation
Range (km)
Doppler Factor

Next 0 passes for location: London (51.5072 / 0.1276)

No passes found over London.
HISAKI (SPRINT-A)